Location: ????????
(56.1167°N, 38.6333°E)
Time: 09:12:43
(UTC+00:00)

Meteor 2-3 Rocket - Pass Details

Date: 18 November 2025
Orbit: 841 x 884 km, 81.2° (Epoch: 14 December)

Event Time Altitude Azimuth Distance (km) Brightness Sun altitude
Rises 15:02:04 0° 346° (NNW) 3,477 6.9 -14.8°
Reaches altitude 10° 15:04:39 10° 353° (N) 2,528 6.1 -15.2°
Maximum altitude 15:10:08 44° 65° (ENE) 1,175 4.0 -15.9°
Drops below altitude 10° 15:15:31 10° 138° (SE) 2,485 5.8 -16.6°
Sets 15:18:02 0° 144° (SE) 3,411 6.6 -17.0°
